Location: Gagetown
(45.7834°N, 66.1486°W)
Time: 11:24:49
(UTC+00:00)

ISS - Visible Passes

Search period start: 22 June 2021 00:00
Search period end: 02 July 2021 00:00
Orbit: 417 x 422 km, 51.6° (Epoch: 22 June)

Date Brightness Start Highest point End Pass type
(mag) Time Alt. Az. Time Alt. Az. Time Alt. Az.
26 Jun -1.2 07:39:51 10° SSE 07:41:07 12° SE 07:42:24 10° ESE visible
28 Jun -2.4 07:39:40 10° SSW 07:42:38 29° SE 07:45:36 10° ENE visible
29 Jun -1.8 06:53:58 15° SSE 06:55:19 19° SE 06:57:46 10° E visible
30 Jun -1.3 06:08:13 12° SE 06:08:13 12° SE 06:09:21 10° ESE visible
30 Jun -3.7 07:41:10 11° SW 07:44:19 73° SSE 07:47:41 10° ENE visible
01 Jul -3.3 06:55:22 26° SSW 06:56:54 46° SE 07:00:09 10° ENE visible
